RH
4 3 3 3 3 4 3 2 2 3 3 3 3 3 3 3 3 3 3 3 3 3 3 3 4 16 9 19 25 29 27 27 26 28 31 27 38 52 46 66 66 55 52 53 46
4 4 4 3 3 4 6 3 3 3 3 3 3 3 3 3 3 2 3 3 3 3 3 3 3 3 4 6 17 25 30 28 24 21 20 26 30 26 27 32 49 39 52 56 48
4 4 4 4 3 3 9 10 4 4 3 4 3 4 4 3 3 3 3 3 3 3 4 4 5 5 5 7 9 17 26 21 21 17 17 20 13 13 19 28 30 41 66 57 32
4 3 3 4 3 3 8 19 16 5 4 4 4 4 4 4 4 4 4 3 3 4 4 5 5 5 6 8 17 31 24 25 26 22 15 16 20 24 30 38 40 47 66 66 56
5 4 4 3 3 4 15 19 21 17 5 5 5 5 8 10 10 9 8 6 4 4 5 5 6 7 9 16 42 57 45 30 26 34 32 32 28 28 32 42 44 54 72 66 72
6 5 5 5 4 7 19 11 15 21 12 5 5 8 10 9 7 8 9 7 4 4 6 7 7 8 9 19 49 55 46 53 56 59 66 61 55 49 38 33 52 47 57 54 48
6 5 5 5 8 21 14 8 14 21 16 6 8 10 9 8 7 8 8 6 5 6 7 8 8 8 9 19 54 45 47 62 71 69 68 69 59 60 63 57 29 50 47 46 46
6 6 5 5 23 26 14 8 9 13 7 9 11 12 8 6 6 7 6 6 5 7 8 8 8 8 8 20 40 55 51 74 57 49 47 48 53 76 72 69 68 47 47 52 57
5 6 6 5 26 27 19 11 8 8 10 12 13 14 9 7 6 6 6 6 7 8 8 9 8 7 9 14 39 51 80 79 69 44 35 34 66 65 60 56 70 70 66 62 63
5 5 6 5 19 28 24 14 11 11 12 13 15 17 14 10 7 7 6 7 7 9 9 8 7 8 15 21 99 65 68 75 71 56 43 58 71 70 64 48 54 77 74 72 68
5 5 6 6 8 29 27 18 15 15 17 20 23 24 20 16 9 7 8 8 8 9 9 8 7 13 15 34 57 72 80 69 58 60 62 72 79 83 68 45 48 68 80 64 76
5 5 6 6 5 27 29 28 20 18 23 28 31 31 28 20 14 11 13 12 11 10 10 9 10 11 27 42 53 62 52 53 50 85 81 86 83 76 61 44 50 68 65 80 85
6 5 5 6 6 12 28 29 28 23 23 28 30 31 29 29 23 14 14 15 12 10 9 13 17 19 40 56 58 65 53 31 78 86 91 75 69 62 53 44 60 70 68 73 81
9 7 5 6 6 5 28 30 30 31 27 28 30 30 29 27 26 24 20 17 13 10 10 17 18 22 36 53 52 47 39 59 84 82 89 77 93 70 56 49 51 54 60 79 82
11 10 7 5 6 6 20 33 32 32 33 32 32 30 27 27 23 24 21 17 15 12 14 19 16 17 32 45 39 24 39 73 88 76 79 73 87 74 67 58 54 49 45 55 80
14 12 9 7 6 7 11 37 35 36 35 33 35 35 33 29 28 26 21 18 15 15 18 21 20 27 40 46 38 26 17 61 57 65 82 50 65 73 64 60 59 51 49 40 53
16 13 11 8 7 7 11 33 40 39 37 37 36 37 34 32 30 29 26 21 22 21 28 26 33 38 40 48 50 34 16 64 63 61 69 39 72 76 72 68 64 62 60 49 40
22 18 13 10 8 9 12 28 43 37 43 41 40 38 38 35 34 33 34 33 28 29 31 46 54 41 48 52 60 41 58 68 78 64 66 50 81 76 70 67 65 59 54 52 46
21 19 14 8 10 10 16 29 41 44 48 47 45 41 39 37 36 35 36 34 32 34 33 49 57 55 57 60 56 51 49 54 68 53 63 67 79 75 74 76 62 59 55 52 47
12 13 10 8 12 15 21 22 42 54 60 58 53 47 43 43 43 46 45 45 43 43 45 49 61 59 61 64 62 53 49 52 58 68 68 70 56 80 80 89 70 54 62 54 55
13 10 10 11 15 24 31 30 43 68 69 72 62 57 54 54 59 60 60 59 62 61 57 57 59 71 60 64 84 62 63 56 66 68 70 67 72 46 40 52 60 59 62 75 76
35 14 13 15 26 33 42 43 45 62 96 86 78 70 74 69 74 76 70 68 75 79 81 76 73 80 93 47 55 61 73 76 78 81 82 52 73 40 32 34 42 52 46 55 66
50 23 21 25 36 48 51 53 48 60 75 89 85 81 74 74 77 77 78 79 79 78 77 76 73 80 82 64 59 58 50 57 49 66 78 72 84 69 19 20 20 24 28 32 42
53 44 41 39 40 49 53 58 57 59 73 78 87 89 80 79 76 72 65 61 62 62 64 60 58 59 78 90 83 44 44 39 37 76 83 85 88 19 19 19 19 19 19 20 22
51 52 50 48 43 48 52 54 62 66 68 75 79 80 78 79 77 82 77 64 51 42 43 43 33 32 34 31 32 31 28 24 21 22 24 59 33 22 25 24 21 19 18 22 23
51 53 51 50 47 42 54 50 57 70 75 78 80 83 84 86 88 70 58 45 35 20 17 17 19 18 20 22 26 26 22 22 25 26 28 27 31 16 18 12 11 10 10 10 12
51 55 55 56 53 46 50 52 48 56 67 76 75 75 71 69 60 52 44 37 24 21 19 19 21 24 28 25 24 23 20 24 22 18 17 14 11 9 8 8 8 8 7 7 7
Wind_Speed
8 7 7 6 6 5 4 2 4 5 6 6 6 6 5 4 5 5 5 4 4 3 2 1 2 4 4 4 3 3 2 1 4 7 7 11 14 13 10 13 14 14 16 14 11
11 10 9 8 8 7 7 6 4 4 4 4 5 5 5 4 4 4 5 4 3 3 3 3 3 3 2 3 4 4 2 2 3 4 7 10 11 13 17 17 16 14 14 14 10
12 13 12 10 9 8 9 8 8 8 6 6 5 5 4 4 4 3 4 4 4 4 5 4 3 2 2 4 4 4 1 2 4 4 6 9 10 12 15 14 16 16 15 12 8
11 10 11 11 10 9 9 10 10 10 9 7 6 5 5 6 6 5 4 4 4 4 3 3 3 4 4 6 5 3 2 1 5 7 10 9 10 12 14 15 14 16 16 14 13
9 9 8 8 9 8 9 11 12 12 11 8 7 6 5 5 6 6 6 6 6 5 5 5 5 4 4 7 7 3 1 3 4 6 9 10 10 12 11 12 15 15 16 15 16
10 8 7 6 7 7 8 9 12 13 12 9 7 7 6 7 6 7 8 8 8 7 8 6 4 3 4 6 7 5 3 1 4 5 6 9 12 14 13 12 11 13 15 15 14
10 9 7 7 5 6 6 7 10 11 11 10 9 7 5 6 8 9 8 9 8 8 7 5 3 3 5 7 7 4 4 3 4 4 7 11 13 16 16 15 16 12 14 15 14
10 9 7 7 4 5 6 5 8 10 11 11 10 8 5 6 7 7 7 8 7 7 5 3 3 3 5 5 8 8 4 3 3 6 8 9 14 15 15 16 16 16 14 14 10
10 8 8 7 5 6 7 6 9 11 12 11 10 7 6 7 6 7 9 10 9 7 5 3 2 1 1 3 5 5 5 6 3 7 12 12 11 11 13 16 17 15 14 14 14
10 8 7 7 7 7 7 9 9 10 10 10 9 9 8 7 7 8 10 10 10 8 6 3 2 3 2 6 7 8 7 7 5 8 13 11 8 10 15 14 15 12 10 9 9
10 8 7 7 7 8 8 9 10 10 10 9 8 9 9 10 9 10 10 10 9 9 6 4 4 6 5 5 4 5 5 1 2 6 8 5 10 13 13 14 13 11 8 8 8
9 8 7 7 7 11 11 10 11 11 11 9 7 7 9 10 11 11 11 11 10 9 6 5 4 7 7 3 4 8 4 3 3 3 4 6 9 12 16 13 14 10 6 3 6
8 8 9 8 9 13 14 11 13 12 12 11 9 8 9 11 13 12 11 10 10 9 8 7 8 10 10 6 3 3 2 3 4 6 6 6 14 16 15 12 14 13 6 3 6
7 7 9 10 9 11 15 14 12 12 12 11 11 9 10 12 12 13 11 11 10 10 10 9 9 11 11 7 3 2 6 10 10 10 6 2 11 15 15 15 15 16 15 9 11
10 8 9 11 11 10 16 18 14 12 12 13 12 11 11 11 11 11 12 12 11 11 11 11 9 9 8 6 4 4 11 15 13 13 7 2 8 10 10 14 18 18 15 14 11
11 9 10 11 12 11 16 19 17 14 13 13 14 12 12 11 11 11 12 11 10 9 10 8 11 10 8 6 4 3 10 14 12 7 3 3 6 7 7 12 14 15 16 13 10
14 12 13 13 12 13 16 20 18 19 14 15 15 14 13 13 11 11 12 12 11 12 10 11 10 9 8 4 4 2 7 4 3 1 6 9 3 3 6 7 10 11 12 13 11
17 16 15 15 14 14 17 20 22 19 19 14 15 15 14 12 11 11 11 11 11 12 16 14 8 8 5 2 3 3 7 4 4 2 4 5 1 6 8 5 4 7 10 11 12
17 17 17 17 16 16 18 22 25 23 21 15 15 15 14 12 10 9 9 10 12 13 14 13 10 8 5 3 4 2 5 8 3 1 4 5 4 6 9 7 9 10 8 10 11
15 17 18 19 18 18 20 22 22 22 20 16 14 13 13 11 11 9 9 8 9 11 9 11 9 9 7 5 7 5 3 1 4 3 3 8 6 11 10 11 15 10 9 10 10
11 14 18 21 19 20 22 21 22 23 21 18 16 12 12 13 13 12 11 10 8 8 10 8 9 12 11 11 10 8 6 8 7 8 8 6 12 12 13 15 16 14 12 9 13
9 12 19 21 21 21 23 21 21 23 23 20 19 16 17 15 17 15 15 13 11 11 12 13 12 12 13 14 13 14 14 12 10 12 16 14 17 19 14 13 16 17 14 12 13
10 11 18 21 21 22 21 20 19 21 24 24 24 23 17 15 18 17 16 16 17 19 17 18 16 15 14 16 17 18 17 16 17 17 18 17 20 28 21 19 19 19 19 21 21
11 13 15 18 19 20 21 21 20 20 22 23 25 25 23 21 20 18 17 18 20 22 23 21 21 21 18 23 26 21 21 21 21 17 17 18 23 28 24 26 25 24 23 24 24
12 13 16 17 19 22 22 20 22 24 24 24 25 25 24 25 24 22 23 23 20 20 21 23 23 26 25 27 24 24 22 22 21 21 22 20 26 35 29 31 32 32 30 30 31
13 13 16 18 20 22 24 25 25 25 27 27 27 27 27 28 27 26 27 22 19 17 19 18 19 18 19 23 22 24 23 24 24 25 26 28 30 30 34 35 35 36 36 36 36
14 13 15 16 21 22 25 26 27 27 27 28 27 27 27 25 26 27 25 22 19 18 18 18 20 20 22 24 25 25 26 23 27 26 27 30 31 33 34 35 38 39 39 40 40
Wind_Direction
297 299 303 307 302 272 259 262 240 231 230 226 225 227 219 209 212 193 181 177 160 150 131 82 89 117 89 94 85 81 67 317 294 287 274 253 252 250 257 244 242 263 268 266 267
287 288 289 293 295 274 253 240 229 208 197 192 191 191 188 188 199 185 183 185 179 165 144 118 109 121 87 96 111 108 103 20 338 295 280 274 266 262 257 257 257 269 257 259 264
288 279 277 279 283 272 244 240 234 230 224 224 218 210 201 199 212 190 177 177 172 154 139 135 132 135 145 134 133 143 105 356 329 307 306 303 287 267 260 258 255 250 248 249 243
304 294 279 271 274 267 242 238 234 230 227 227 225 222 224 220 217 216 201 186 176 167 159 155 163 173 183 175 158 160 176 341 313 310 308 305 289 282 274 264 259 244 239 245 245
319 307 291 270 267 260 240 243 232 226 222 226 230 230 205 210 218 218 209 198 187 182 163 160 157 173 198 175 147 185 262 310 305 314 320 318 314 300 288 271 266 253 243 247 252
325 316 303 289 269 246 241 241 226 220 220 224 222 201 206 226 227 220 212 195 188 177 164 155 178 206 234 199 169 185 223 330 328 310 304 324 331 321 311 270 269 260 247 248 253
319 318 308 306 271 232 238 235 216 210 211 213 191 196 213 217 219 212 213 200 193 169 165 163 206 246 259 218 187 184 175 176 243 291 309 330 342 338 328 312 270 284 259 250 250
313 313 306 309 258 231 224 219 204 199 196 185 187 190 196 204 208 210 199 190 179 164 176 189 230 245 245 191 184 195 200 218 296 305 312 334 344 349 349 329 308 289 284 244 242
310 306 303 297 248 230 215 204 189 180 182 191 194 187 183 189 182 181 177 173 167 179 196 219 259 251 197 182 152 186 215 228 303 320 323 344 359 353 345 334 332 314 298 245 241
303 299 296 284 245 229 215 206 195 189 194 201 203 198 194 187 180 168 172 172 172 184 205 215 193 165 177 166 196 190 205 228 289 315 343 8 16 341 336 333 337 326 310 241 226
293 290 280 277 247 225 211 206 202 197 197 203 208 207 200 191 182 176 168 174 185 190 196 205 163 175 172 144 151 170 177 105 322 322 346 33 357 342 337 335 334 313 300 246 223
284 281 270 267 253 221 215 209 201 198 200 202 203 201 205 192 183 188 178 175 182 190 185 174 154 139 117 132 166 163 159 346 10 24 39 35 13 347 332 344 347 340 334 284 232
290 275 262 256 250 225 217 215 208 203 205 210 209 210 208 198 191 190 191 181 181 182 170 157 144 128 121 120 122 192 169 214 115 133 102 60 24 9 3 19 24 30 9 42 171
278 282 264 248 249 235 215 214 210 209 210 214 213 209 203 194 189 188 187 185 183 171 170 165 150 129 124 129 140 139 130 135 127 142 114 79 34 22 27 28 29 41 36 15 145
268 269 267 248 242 232 212 214 213 207 206 208 208 203 190 186 183 186 181 184 184 179 177 171 157 141 132 122 141 134 149 147 133 114 111 18 57 32 25 19 27 38 43 49 40
260 259 260 248 235 230 211 212 214 208 212 203 199 198 189 181 180 181 172 171 173 181 183 171 156 145 137 121 108 122 153 157 157 135 33 268 89 320 4 13 19 26 44 48 49
257 254 253 246 235 227 211 209 210 213 207 204 197 191 189 185 183 184 171 168 174 176 182 163 163 167 153 127 83 72 141 127 185 222 239 260 32 328 349 5 17 18 27 41 42
252 247 247 241 231 224 213 206 212 215 210 209 201 197 193 195 185 176 168 171 178 184 174 165 193 202 156 115 144 96 160 168 169 177 253 23 37 303 310 329 6 9 16 25 20
246 241 238 233 224 219 214 206 208 211 210 209 204 203 203 199 194 181 171 173 179 183 185 184 204 202 194 188 190 183 130 176 188 343 63 247 308 300 302 315 325 332 347 0 1
243 233 227 220 215 214 215 215 207 208 211 207 202 209 207 202 196 185 176 179 189 202 203 205 199 222 223 233 251 238 208 41 305 259 265 291 285 228 241 260 285 297 325 331 348
235 225 217 212 212 212 214 212 208 205 215 208 210 218 221 211 208 205 202 198 198 210 216 225 232 245 245 247 234 237 246 240 247 256 250 285 274 260 250 252 261 274 289 300 310
227 217 208 205 208 215 214 209 208 205 207 209 221 219 218 217 213 218 223 229 220 213 218 230 227 234 234 238 226 229 234 243 263 284 286 262 268 273 269 255 251 255 267 272 279
218 205 202 204 208 212 216 212 210 208 209 213 217 220 218 218 226 228 234 240 245 245 240 235 233 230 263 272 266 258 257 262 267 266 270 274 273 277 284 284 277 272 271 270 272
214 210 207 207 213 215 213 212 213 211 211 211 214 217 220 224 229 238 240 237 237 237 238 237 236 231 218 232 240 260 257 259 258 262 269 273 273 274 282 284 282 279 275 275 271
218 216 216 213 213 213 213 211 215 218 219 218 217 220 229 237 245 251 256 254 248 246 245 241 238 233 234 240 243 255 263 265 264 267 271 259 273 281 287 286 285 284 281 277 275
220 222 219 217 216 214 212 211 215 222 226 229 231 233 238 243 248 253 254 254 252 247 252 250 249 252 254 258 265 270 269 274 280 282 281 280 277 283 283 283 282 280 278 276 271
224 227 223 220 218 217 216 216 216 220 226 233 237 238 241 246 242 247 254 256 252 253 251 254 258 260 262 265 269 272 271 279 277 278 280 279 282 284 284 283 282 278 276 272 268